Regional Weather Roundup
Issued by NWS

Home | Current Version | Previous Version | Text Only | Print | Product List | Glossary Off
Versions: 1 2 3 4 5 6 7 8 9 10 11 12 13 14 15 16 17 18 19 20 21 22 23 24 25 26 27 28 29 30 31 32 33 34 35 36 37 38 39 40 41 42 43 44 45 46 47 48 49 50

000
ASUS45 KCYS 041710
RWRWY

WYOMING REGIONAL WEATHER ROUNDUP
NATIONAL WEATHER SERVICE CHEYENNE WY
1100 AM MDT SAT JUL 04 2015

NOTE:  "FAIR" INDICATES FEW OR NO CLOUDS BELOW 12,000 FEET
WITH NO SIGNIFICANT WEATHER AND/OR OBSTRUCTIONS TO VISIBILITY.

WYZ001-041800-
YELLOWSTONE NATIONAL PARK

CITY           SKY/WX    TMP DP  RH WIND       PRES   REMARKS
LK YELLOWSTONE   N/A     65  47  52 E6        30.23F
W YELLOWSTONE  NOT AVBL

$$
WYZ002>013-054>058-071-098>099-041800-
NORTHERN WYOMING

CITY           SKY/WX    TMP DP  RH WIND       PRES   REMARKS
JACKSON        FAIR      73  46  38 CALM      30.11F
CODY           FAIR      84  50  30 NE5       29.97F
GREYBULL       FAIR      86  52  30 VRB5      29.88F
WORLAND        FAIR      82  58  43 W5        29.91F
SHERIDAN       FAIR      89  53  29 NE5       29.88F
BUFFALO        FAIR      85  47  26 E7        29.97S
GILLETTE       FAIR      86  53  32 CALM      29.92S
HULETT         FAIR      81  55  41 W3        29.93S
NEWCASTLE      FAIR      77  54  44 MISG      29.94S

$$
WYZ014>020-022>026-101>103-041800-
CENTRAL WYOMING

CITY           SKY/WX    TMP DP  RH WIND       PRES   REMARKS
BIG PINEY      FAIR      80  38  22 W5        30.15F
PINEDALE       FAIR      79  41  25 NW5       30.16F
DUBOIS         FAIR      79  36  21 N3        30.13S
LANDER         FAIR      83  50  31 NE5       30.01F
RIVERTON       FAIR      80  54  40 VRB3      30.01F
CASPER         FAIR      83  49  30 W9        29.99F
DOUGLAS        FAIR      83  56  39 VRB5      29.97F

$$
WYZ021-027>030-104>119-041800-
SOUTHERN WYOMING

CITY           SKY/WX    TMP DP  RH WIND       PRES   REMARKS
EVANSTON       FAIR      80  43  26 VRB5      30.18F
KEMMERER       FAIR     N/A N/A N/A W10       30.20S
FORT BRIDGER   MOSUNNY   82  37  20 CALM      30.20F
ROCK SPRINGS   FAIR      84  41  21 W13G18    30.14F
DIXON          FAIR      83  45  26 SW10G17   30.16F
RAWLINS        FAIR      82  42  24 SW14      30.12F
SARATOGA       FAIR      79  43  27 SW8       30.17F
LARAMIE        FAIR      78  43  28 VRB3      30.16S
CHEYENNE       FAIR      85  48  27 N12       30.06S
TORRINGTON     FAIR      81  62  52 S8        29.92S
PINE BLUFFS    FAIR      82  54  36 S8        30.00F

$$


USA.gov is the U.S. government's official web portal to all federal, state and local government web resources and services.